Weather History for Wilmington, OH

Change the Weather History Date:

Sunday, April 28, 2013

  Actual Average (KDAY) Record (KDAY)
Temperature  
Mean Temperature 58 °F 56 °F  
Max Temperature 66 °F 66 °F 85 °F (1894)
Min Temperature 53 °F 46 °F 29 °F (1934)
Degree Days  
Heating Degree Days 6 10  
Month to date heating degree days 394  
Since 1 July heating degree days 5433  
Cooling Degree Days 0 1  
Month to date cooling degree days 8  
Year to date cooling degree days 8  
Growing Degree Days 8 (Base 50)    
Moisture  
Dew Point 55 °F    
Average Humidity 91    
Maximum Humidity 100    
Minimum Humidity 78    
Precipitation  
Precipitation 0.66 in 0.14 in 1.26 in (1958)
Month to date precipitation 3.81  
Year to date precipitation 12.10  
Snow  
Snow 0.00 in 0.00 in 0.00 in ()
Month to date snowfall 0.6  
Since 1 July snowfall 23.3  
Snow Depth -    
Sea Level Pressure  
Sea Level Pressure 29.91 in    
Wind  
Wind Speed 9 mph (South)    
Max Wind Speed 15 mph    
Max Gust Speed 22 mph    
Visibility 7 miles    
Events Fog , Rain , Thunderstorm    
T = Trace of Precipitation, MM = Missing Value Source: NWS Daily Summary

Daily Weather History Graph

Daily Weather History Graph

Search for Another Location

Airport:

Trip Planner

Search our weather history database for the weather conditions in past years. The results will help you decide how hot, cold, wet, or windy it might be!

Date:

Astronomy

Apr. 28, 2013 Rise Set
Actual Time 6:39 AM EDT 8:26 PM EDT
Civil Twilight 6:11 AM EDT 8:55 PM EDT
Nautical Twilight 5:36 AM EDT 9:30 PM EDT
Astronomical Twilight 4:59 AM EDT 10:07 PM EDT
Moon 11:55 PM EDT (4/28) 8:56 AM EDT (4/28)
Length of Visible Light 14h 43m
Length of Day
13h 46m
Waning Gibbous, 89% of the Moon is Illuminated
Apr 28
Waning Gibbous
May 2
Last Quarter
May 9
New
May 18
First Quarter
May 25
Full

Hourly Weather History & Observations

Time (EDT) Temp. Dew Point Humidity Pressure Visibility Wind Dir Wind Speed Gust Speed Precip Events Conditions
12:54 AM 54.0 °F 48.9 °F 83% 30.06 in 10.0 mi SE 8.1 mph - 0.00 in   Overcast
1:54 AM 55.0 °F 50.0 °F 83% 30.02 in 10.0 mi ESE 9.2 mph - N/A   Overcast
2:46 AM 55.4 °F 51.8 °F 88% 29.99 in 10.0 mi SE 9.2 mph - N/A   Overcast
2:54 AM 55.0 °F 51.1 °F 86% 29.99 in 9.0 mi SE 10.4 mph - 0.00 in Rain Light Rain
3:54 AM 55.0 °F 52.0 °F 89% 29.96 in 10.0 mi SE 11.5 mph - 0.00 in   Overcast
4:16 AM 55.4 °F 53.6 °F 94% 29.96 in 7.0 mi SE 11.5 mph - 0.01 in Rain Light Rain
4:46 AM 53.6 °F 53.6 °F 100% 29.96 in 5.0 mi SSE 9.2 mph - 0.02 in Rain Light Rain
4:54 AM 55.0 °F 53.1 °F 93% 29.96 in 5.0 mi SSE 9.2 mph - 0.03 in Rain Light Rain
5:00 AM 53.6 °F 53.6 °F 100% 29.95 in 5.0 mi SSE 9.2 mph - 0.01 in Rain Light Rain
5:45 AM 53.6 °F 53.6 °F 100% 29.95 in 7.0 mi SSE 8.1 mph - 0.04 in Rain Light Rain
5:54 AM 54.0 °F 54.0 °F 100% 29.96 in 6.0 mi SSE 6.9 mph - 0.04 in Rain Light Rain
6:03 AM 55.4 °F 53.6 °F 94% 29.94 in 8.0 mi SE 9.2 mph - 0.01 in Rain Light Rain
6:54 AM 55.0 °F 54.0 °F 96% 29.95 in 7.0 mi SSE 8.1 mph - 0.02 in Rain Light Rain
7:50 AM 55.4 °F 53.6 °F 94% 29.94 in 10.0 mi SSE 6.9 mph - 0.01 in   Overcast
7:54 AM 55.0 °F 54.0 °F 96% 29.95 in 10.0 mi SSE 6.9 mph - 0.01 in   Overcast
9:02 AM 57.2 °F 55.4 °F 94% 29.93 in 10.0 mi SSE 8.1 mph - N/A   Overcast
9:15 AM 57.2 °F 53.6 °F 88% 29.93 in 10.0 mi SSE 9.2 mph - N/A   Overcast
9:32 AM 57.2 °F 53.6 °F 88% 29.93 in 10.0 mi South 10.4 mph - N/A   Overcast
9:54 AM 57.0 °F 54.0 °F 89% 29.94 in 10.0 mi South 9.2 mph - N/A   Overcast
10:49 AM 60.8 °F 55.4 °F 82% 29.93 in 10.0 mi South 15.0 mph - N/A   Mostly Cloudy
10:54 AM 60.1 °F 55.0 °F 83% 29.94 in 10.0 mi South 11.5 mph 20.7 mph N/A   Mostly Cloudy
11:54 AM 57.9 °F 54.0 °F 87% 29.94 in 8.0 mi South 12.7 mph - 0.00 in Rain Light Rain
12:30 PM 57.2 °F 55.4 °F 94% 29.92 in 2.5 mi South 15.0 mph 21.9 mph 0.04 in Rain Rain
12:44 PM 59.0 °F 55.4 °F 88% 29.91 in 10.0 mi South 15.0 mph 20.7 mph 0.06 in   Overcast
12:54 PM 59.0 °F 55.0 °F 87% 29.93 in 10.0 mi South 12.7 mph - 0.06 in Rain Light Rain
1:25 PM 57.2 °F 55.4 °F 94% 29.90 in 10.0 mi South 6.9 mph - 0.01 in Rain Light Rain
1:54 PM 60.1 °F 55.9 °F 86% 29.91 in 10.0 mi South 10.4 mph - 0.01 in   Overcast
2:54 PM 63.0 °F 57.9 °F 84% 29.88 in 10.0 mi SSE 11.5 mph - N/A   Overcast
3:08 PM 62.6 °F 57.2 °F 82% 29.87 in 10.0 mi South 11.5 mph - N/A   Overcast
3:54 PM 64.0 °F 57.0 °F 78% 29.86 in 10.0 mi South 9.2 mph - N/A   Overcast
4:27 PM 62.6 °F 57.2 °F 82% 29.84 in 7.0 mi South 6.9 mph - 0.00 in Rain Light Rain
4:54 PM 62.1 °F 57.9 °F 86% 29.85 in 10.0 mi SSW 6.9 mph - 0.03 in   Overcast
5:54 PM 61.0 °F 57.9 °F 90% 29.84 in 2.0 mi South 9.2 mph - 0.03 in Rain , Thunderstorm Heavy Thunderstorms and Rain
6:14 PM 59.0 °F 57.2 °F 94% 29.84 in 0.2 mi SSW 6.9 mph - 0.35 in Fog , Rain , Thunderstorm Heavy Thunderstorms and Rain
6:18 PM 59.0 °F 57.2 °F 94% 29.85 in 0.5 mi WSW 6.9 mph - 0.43 in Fog , Rain Light Rain
6:22 PM 60.8 °F 57.2 °F 88% 29.85 in 2.0 mi WSW 8.1 mph - 0.43 in Rain Light Rain
6:29 PM 60.8 °F 57.2 °F 88% 29.85 in 10.0 mi West 9.2 mph - 0.43 in Rain Light Rain
6:54 PM 62.1 °F 57.9 °F 86% 29.87 in 10.0 mi West 9.2 mph - 0.43 in   Overcast
7:21 PM 60.8 °F 57.2 °F 88% 29.85 in 10.0 mi West 4.6 mph - N/A   Overcast
7:54 PM 61.0 °F 57.0 °F 87% 29.86 in 10.0 mi West 3.5 mph - N/A   Overcast
8:54 PM 59.0 °F 57.9 °F 96% 29.88 in 10.0 mi Calm Calm - N/A   Overcast
9:54 PM 59.0 °F 57.9 °F 96% 29.89 in 6.0 mi SSE 3.5 mph - N/A   Overcast
10:29 PM 57.2 °F 57.2 °F 100% 29.89 in 4.0 mi South 4.6 mph - N/A   Mostly Cloudy
10:38 PM 57.2 °F 57.2 °F 100% 29.89 in 3.0 mi Calm Calm - N/A   Mostly Cloudy
10:45 PM 57.2 °F 57.2 °F 100% 29.89 in 2.0 mi South 3.5 mph - N/A   Mostly Cloudy
10:54 PM 57.0 °F 57.0 °F 100% 29.91 in 1.5 mi South 3.5 mph - N/A   Overcast
11:06 PM 57.2 °F 55.4 °F 94% 29.89 in 0.2 mi South 3.5 mph - N/A Fog Fog
11:13 PM 55.4 °F 55.4 °F 100% 29.89 in 0.2 mi SSW 4.6 mph - N/A Fog Fog
11:44 PM 57.2 °F 57.2 °F 100% 29.89 in 0.2 mi South 5.8 mph - N/A Fog Fog
11:54 PM 57.0 °F 57.0 °F 100% 29.91 in 0.2 mi SSW 6.9 mph - N/A Fog Fog